Hourly Weather Bolshie Korshuny

Today, 20 June, Sunday

Time Temperature Precipitation Wind Pressure Humidity
00:00 +20°C° 0 mm 5 mps 750 mmHg 78%
01:00 +19°C° 0 mm 4 mps 751 mmHg 80%
02:00 +18°C° 0 mm 4 mps 751 mmHg 83%
03:00 +18°C° 0 mm 3 mps 751 mmHg 85%
04:00 +19°C° 0 mm 3 mps 751 mmHg 83%
05:00 +20°C° 0 mm 3 mps 752 mmHg 80%
06:00 +21°C° 0 mm 2 mps 752 mmHg 78%
07:00 +22°C° 0 mm 3 mps 752 mmHg 74%
08:00 +24°C° 0 mm 3 mps 752 mmHg 69%
09:00 +26°C° 0 mm 3 mps 753 mmHg 65%
10:00 +26°C° 0 mm 3 mps 753 mmHg 62%
11:00 +27°C° 0 mm 3 mps 753 mmHg 59%
12:00 +27°C° 0 mm 3 mps 753 mmHg 57%
13:00 +27°C° 0 mm 3 mps 753 mmHg 56%
14:00 +27°C° 0 mm 2 mps 753 mmHg 56%
15:00 +28°C° 0 mm 2 mps 753 mmHg 56%
16:00 +27°C° 0 mm 2 mps 753 mmHg 60%
17:00 +27°C° 0 mm 2 mps 753 mmHg 63%
18:00 +26°C° 0 mm 2 mps 753 mmHg 67%
19:00 +25°C° 0 mm 2 mps 753 mmHg 69%
20:00 +23°C° 0 mm 2 mps 753 mmHg 71%
21:00 +20°C° 0 mm 3 mps 753 mmHg 73%
22:00 +19°C° 0 mm 3 mps 753 mmHg 72%
23:00 +19°C° 0 mm 3 mps 753 mmHg 71%

Tomorrow, 21 June, Monday

Time Temperature Precipitation Wind Pressure Humidity
00:00 +19°C° 0 mm 4 mps 753 mmHg 69%
01:00 +18°C° 0.1 mm 3 mps 753 mmHg 73%
02:00 +18°C° 0.1 mm 3 mps 753 mmHg 76%
03:00 +18°C° 0.1 mm 3 mps 753 mmHg 80%
04:00 +19°C° 0.1 mm 3 mps 753 mmHg 81%
05:00 +21°C° 0.1 mm 3 mps 753 mmHg 83%
06:00 +22°C° 0.1 mm 3 mps 753 mmHg 84%
07:00 +24°C° 0 mm 3 mps 753 mmHg 77%
08:00 +26°C° 0 mm 3 mps 753 mmHg 70%
09:00 +28°C° 0 mm 3 mps 753 mmHg 63%
10:00 +29°C° 0 mm 4 mps 753 mmHg 59%
11:00 +29°C° 0 mm 4 mps 753 mmHg 56%
12:00 +30°C° 0 mm 5 mps 753 mmHg 53%
13:00 +30°C° 0 mm 5 mps 752 mmHg 53%
14:00 +30°C° 0 mm 5 mps 752 mmHg 53%
15:00 +30°C° 0 mm 5 mps 752 mmHg 53%
16:00 +30°C° 0 mm 4 mps 752 mmHg 58%
17:00 +29°C° 0 mm 4 mps 751 mmHg 62%
18:00 +28°C° 0 mm 3 mps 751 mmHg 67%
19:00 +27°C° 0 mm 3 mps 751 mmHg 70%
20:00 +26°C° 0 mm 3 mps 752 mmHg 73%
21:00 +24°C° 0 mm 3 mps 752 mmHg 76%
22:00 +24°C° 0 mm 3 mps 752 mmHg 78%
23:00 +22°C° 0 mm 3 mps 752 mmHg 80%

Day after tomorrow, 22 June, Tuesday

Time Temperature Precipitation Wind Pressure Humidity
00:00 +21°C° 0 mm 3 mps 752 mmHg 82%
01:00 +21°C° 0 mm 3 mps 752 mmHg 83%
02:00 +21°C° 0 mm 3 mps 752 mmHg 83%
03:00 +20°C° 0 mm 3 mps 752 mmHg 83%
04:00 +21°C° 0 mm 3 mps 752 mmHg 80%
05:00 +22°C° 0 mm 3 mps 752 mmHg 78%
06:00 +24°C° 0 mm 3 mps 752 mmHg 75%
07:00 +26°C° 0 mm 3 mps 752 mmHg 70%
08:00 +27°C° 0 mm 4 mps 753 mmHg 65%
09:00 +29°C° 0 mm 4 mps 753 mmHg 60%
10:00 +30°C° 0 mm 4 mps 753 mmHg 57%
11:00 +32°C° 0 mm 4 mps 753 mmHg 55%
12:00 +32°C° 0 mm 4 mps 753 mmHg 52%
13:00 +33°C° 0 mm 4 mps 753 mmHg 51%
14:00 +33°C° 0 mm 4 mps 752 mmHg 51%
15:00 +33°C° 0 mm 4 mps 752 mmHg 50%
16:00 +31°C° 0.1 mm 3 mps 752 mmHg 57%
17:00 +29°C° 0.1 mm 3 mps 752 mmHg 63%
18:00 +28°C° 0.1 mm 2 mps 752 mmHg 70%
19:00 +27°C° 0 mm 2 mps 752 mmHg 73%
20:00 +25°C° 0 mm 2 mps 752 mmHg 75%
21:00 +24°C° 0 mm 1 mps 752 mmHg 77%
22:00 +23°C° 0 mm 2 mps 752 mmHg 77%
23:00 +23°C° 0 mm 2 mps 752 mmHg 78%

23 June, Wednesday

Time Temperature Precipitation Wind Pressure Humidity
00:00 +21°C° 0 mm 3 mps 752 mmHg 78%
01:00 +21°C° 0 mm 3 mps 752 mmHg 79%
02:00 +20°C° 0 mm 3 mps 752 mmHg 80%
03:00 +20°C° 0 mm 3 mps 751 mmHg 81%
04:00 +21°C° 0 mm 3 mps 752 mmHg 79%
05:00 +22°C° 0 mm 3 mps 752 mmHg 77%
06:00 +24°C° 0 mm 3 mps 752 mmHg 75%
07:00 +26°C° 0 mm 3 mps 752 mmHg 71%
08:00 +27°C° 0 mm 4 mps 752 mmHg 66%
09:00 +28°C° 0 mm 4 mps 752 mmHg 62%
10:00 +29°C° 0 mm 4 mps 752 mmHg 59%
11:00 +30°C° 0 mm 4 mps 752 mmHg 56%
12:00 +32°C° 0 mm 5 mps 751 mmHg 53%
13:00 +32°C° 0 mm 4 mps 751 mmHg 53%
14:00 +33°C° 0 mm 4 mps 751 mmHg 52%
15:00 +33°C° 0 mm 4 mps 751 mmHg 52%
16:00 +30°C° 0.2 mm 4 mps 751 mmHg 59%
17:00 +29°C° 0.2 mm 4 mps 751 mmHg 66%
18:00 +27°C° 0.2 mm 4 mps 750 mmHg 73%
19:00 +26°C° 0.2 mm 3 mps 750 mmHg 74%
20:00 +25°C° 0.2 mm 3 mps 750 mmHg 75%
21:00 +24°C° 0.2 mm 2 mps 750 mmHg 77%
22:00 +23°C° 0.4 mm 2 mps 750 mmHg 81%
23:00 +22°C° 0.4 mm 1 mps 750 mmHg 85%

24 June, Thursday

Time Temperature Precipitation Wind Pressure Humidity
00:00 +21°C° 0.4 mm 1 mps 750 mmHg 89%
01:00 +21°C° 0 mm 1 mps 750 mmHg 89%
02:00 +21°C° 0 mm 1 mps 750 mmHg 89%
03:00 +21°C° 0 mm 1 mps 750 mmHg 88%
04:00 +22°C° 0.1 mm 1 mps 750 mmHg 86%
05:00 +23°C° 0.1 mm 1 mps 751 mmHg 83%
06:00 +22°C° 0.1 mm 0 mps 751 mmHg 80%
07:00 +23°C° 0 mm 0 mps 751 mmHg 75%
08:00 +26°C° 0 mm 1 mps 751 mmHg 70%
09:00 +28°C° 0 mm 1 mps 751 mmHg 65%
10:00 +29°C° 0 mm 1 mps 751 mmHg 61%
11:00 +30°C° 0 mm 1 mps 751 mmHg 58%
12:00 +31°C° 0 mm 1 mps 751 mmHg 54%
13:00 +31°C° 0 mm 1 mps 751 mmHg 53%
14:00 +31°C° 0 mm 1 mps 751 mmHg 52%
15:00 +31°C° 0 mm 1 mps 751 mmHg 51%
16:00 +31°C° 0 mm 1 mps 751 mmHg 55%
17:00 +31°C° 0 mm 1 mps 750 mmHg 59%
18:00 +30°C° 0 mm 1 mps 750 mmHg 63%
19:00 +28°C° 0.4 mm 2 mps 750 mmHg 70%
20:00 +26°C° 0.4 mm 2 mps 750 mmHg 78%
21:00 +24°C° 0.4 mm 3 mps 750 mmHg 85%
22:00 +23°C° 1 mm 2 mps 750 mmHg 86%
23:00 +21°C° 1 mm 2 mps 750 mmHg 88%

25 June, Friday

Time Temperature Precipitation Wind Pressure Humidity
00:00 +21°C° 1 mm 1 mps 750 mmHg 89%
01:00 +21°C° 0 mm 1 mps 750 mmHg 90%
02:00 +19°C° 0 mm 2 mps 750 mmHg 90%
03:00 +19°C° 0 mm 2 mps 750 mmHg 91%
04:00 +20°C° 0 mm 2 mps 750 mmHg 87%
05:00 +21°C° 0 mm 2 mps 750 mmHg 84%
06:00 +23°C° 0 mm 2 mps 750 mmHg 80%
07:00 +25°C° 0 mm 2 mps 750 mmHg 75%
08:00 +26°C° 0 mm 2 mps 750 mmHg 69%
09:00 +28°C° 0 mm 1 mps 750 mmHg 64%
10:00 +29°C° 0 mm 2 mps 750 mmHg 61%
11:00 +30°C° 0 mm 2 mps 750 mmHg 58%
12:00 +31°C° 0 mm 2 mps 750 mmHg 56%
13:00 +31°C° 0 mm 2 mps 750 mmHg 55%
14:00 +33°C° 0 mm 3 mps 750 mmHg 54%
15:00 +33°C° 0 mm 3 mps 750 mmHg 53%
16:00 +32°C° 0 mm 2 mps 749 mmHg 57%
17:00 +31°C° 0 mm 2 mps 749 mmHg 62%
18:00 +31°C° 0 mm 2 mps 748 mmHg 66%
19:00 +29°C° 0.6 mm 2 mps 748 mmHg 71%
20:00 +27°C° 0.6 mm 2 mps 748 mmHg 77%
21:00 +26°C° 0.6 mm 2 mps 748 mmHg 82%
22:00 +25°C° 1.2 mm 1 mps 748 mmHg 84%
23:00 +24°C° 1.2 mm 1 mps 748 mmHg 87%
Show more